Location: Limerick
(52.6650°N, 8.6230°W)
Time: 19:19:30
(UTC+01:00)

ISS - Pass Details

Date: 25 May 2017
Orbit: 402 x 408 km, 51.6° (Epoch: 29 May)

Event Time Altitude Azimuth Distance (km) Brightness Sun altitude
Rises 23:09:07 0° 231° (SW) 2,327 0.0 -10.0°
Reaches altitude 10° 23:11:18 10° 223° (SW) 1,468 -1.1 -10.2°
Maximum altitude 23:14:20 35° 155° (SSE) 678 -3.2 -10.4°
Drops below altitude 10° 23:17:23 10° 88° (E) 1,471 -1.3 -10.7°
Sets 23:19:34 0° 79° (E) 2,332 -0.2 -10.8°
